Tarboro, NC

12:33 PM EST on February 10, 2016 (GMT -0500)
Tarboro-edgecombe

Weather History for KETC - August, 2013

Change the Weather History Date:

Saturday, August 31, 2013

  Actual Average Record
Temperature  
Mean Temperature 76 °F -  
Max Temperature 89 °F 88 °F 99 °F (1953)
Min Temperature 64 °F 63 °F 45 °F (1976)
Cooling Degree Days 12    
Growing Degree Days 26 (Base 50)    
Moisture  
Dew Point 67 °F    
Average Humidity 75    
Maximum Humidity 96    
Minimum Humidity 41    
Precipitation  
Precipitation 0.00 in - - ()
Sea Level Pressure  
Sea Level Pressure 29.94 in    
Wind  
Wind Speed 2 mph (SSW)    
Max Wind Speed 10 mph    
Max Gust Speed -    
Visibility 7 miles    
Events Fog    
Averages and records for this station are not official NWS values.
T = Trace of Precipitation, MM = Missing Value Source: NWS Daily Summary

Daily Weather History Graph

Daily Weather History Graph

Search for Another Location

Airport or City:

Trip Planner

Search our weather history database for the weather conditions in past years. The results will help you decide how hot, cold, wet, or windy it might be!

Date:

Astronomy

Aug. 31, 2013 Rise Set
Actual Time 6:41 AM EDT 7:38 PM EDT
Civil Twilight 6:15 AM EDT 8:04 PM EDT
Nautical Twilight 5:44 AM EDT 8:35 PM EDT
Astronomical Twilight 5:11 AM EDT 9:07 PM EDT
Moon 2:13 AM EDT (8/31) 4:30 PM EDT (8/31)
Length of Visible Light 13h 49m
Length of Day
12h 57m
Waning Crescent, 21% of the Moon is Illuminated
Aug 31
Waning Crescent
Sep 5
New
Sep 12
First Quarter
Sep 19
Full
Sep 26
Last Quarter

Hourly Weather History & Observations

Time (EDT) Temp. Heat Index Dew Point Humidity Pressure Visibility Wind Dir Wind Speed Gust Speed Precip Events Conditions
12:15 AM 71.8 °F - 68.9 °F 91% 29.97 in 10.0 mi Calm Calm - N/A   Clear
12:35 AM 71.6 °F - 68.9 °F 91% 29.97 in 10.0 mi Calm Calm - N/A   Clear
12:55 AM 71.6 °F - 68.9 °F 91% 29.97 in 10.0 mi Calm Calm - N/A   Clear
1:15 AM 71.2 °F - 68.4 °F 91% 29.97 in 10.0 mi Calm Calm - N/A   Clear
1:35 AM 70.5 °F - 68.2 °F 92% 29.97 in 10.0 mi Calm Calm - N/A   Clear
1:55 AM 68.9 °F - 66.7 °F 93% 29.97 in 5.0 mi Calm Calm - N/A   Clear
2:15 AM 68.2 °F - 66.4 °F 94% 29.96 in 5.0 mi Calm Calm - N/A   Clear
2:35 AM 67.8 °F - 66.0 °F 94% 29.96 in 0.8 mi Calm Calm - N/A   Mist
2:55 AM 67.3 °F - 65.7 °F 95% 29.96 in 1.2 mi Calm Calm - N/A   Scattered Clouds
3:15 AM 66.4 °F - 64.8 °F 95% 29.96 in 0.2 mi Calm Calm - N/A Fog Fog
3:35 AM 66.4 °F - 64.8 °F 95% 29.96 in 0.5 mi Calm Calm - N/A Fog Fog
3:55 AM 66.2 °F - 64.6 °F 94% 29.96 in 0.5 mi Calm Calm - N/A Fog Fog
4:15 AM 65.7 °F - 64.2 °F 95% 29.96 in 0.5 mi Calm Calm - N/A Fog Fog
4:35 AM 65.5 °F - 64.0 °F 95% 29.96 in 0.2 mi Calm Calm - N/A Fog Fog
4:55 AM 65.5 °F - 64.0 °F 95% 29.96 in 0.5 mi Calm Calm - N/A Fog Fog
5:15 AM 64.8 °F - 63.5 °F 96% 29.96 in 0.5 mi Calm Calm - N/A Fog Fog
5:35 AM 64.9 °F - 63.5 °F 95% 29.96 in 0.5 mi Calm Calm - N/A Fog Fog
5:55 AM 64.9 °F - 63.7 °F 96% 29.96 in 0.2 mi Calm Calm - N/A Fog Fog
6:15 AM 66.4 °F - 65.3 °F 96% 29.96 in 0.2 mi Calm Calm - N/A Fog Fog
6:35 AM 67.1 °F - 65.7 °F 95% 29.96 in 0.2 mi Calm Calm - N/A Fog Fog
6:55 AM 67.5 °F - 66.2 °F 96% 29.96 in 0.2 mi Calm Calm - N/A Fog Fog
7:15 AM 68.7 °F - 67.5 °F 96% 29.96 in 0.2 mi Calm Calm - N/A Fog Fog
7:35 AM 69.6 °F - 68.2 °F 95% 29.97 in 0.2 mi Calm Calm - N/A Fog Fog
7:55 AM 70.0 °F - 68.5 °F 95% 29.97 in 0.2 mi Calm Calm - N/A Fog Fog
8:15 AM 70.3 °F - 68.9 °F 95% 29.97 in 0.5 mi Calm Calm - N/A Fog Fog
8:35 AM 70.7 °F - 69.3 °F 95% 29.97 in 0.5 mi SW 3.5 mph - N/A Fog Fog
8:55 AM 71.2 °F - 69.8 °F 95% 29.98 in 2.0 mi SW 4.6 mph - N/A   Overcast
9:15 AM 72.3 °F - 70.7 °F 95% 29.97 in 10.0 mi Calm Calm - N/A   Overcast
9:35 AM 73.2 °F - 71.4 °F 94% 29.98 in 10.0 mi South 5.8 mph - N/A   Scattered Clouds
9:55 AM 76.3 °F - 70.2 °F 81% 29.98 in 10.0 mi South 3.5 mph - N/A   Clear
10:15 AM 79.3 °F - 69.3 °F 71% 29.98 in 10.0 mi Calm Calm - N/A   Clear
10:35 AM 81.0 °F 84.1 °F 69.3 °F 67% 29.98 in 10.0 mi SSW 5.8 mph - N/A   Clear
10:55 AM 81.9 °F 85.0 °F 68.7 °F 64% 29.98 in 10.0 mi SSW 4.6 mph - N/A   Clear
11:15 AM 82.8 °F 86.2 °F 69.1 °F 63% 29.98 in 10.0 mi SSW 6.9 mph - N/A   Clear
11:35 AM 83.8 °F 87.3 °F 68.5 °F 60% 29.98 in 10.0 mi South 5.8 mph - N/A   Clear
11:55 AM 84.7 °F 87.9 °F 67.8 °F 57% 29.97 in 10.0 mi SSW 8.1 mph - N/A   Clear
12:15 PM 85.1 °F 88.2 °F 67.8 °F 56% 29.97 in 10.0 mi South 8.1 mph - N/A   Clear
12:35 PM 85.6 °F 87.9 °F 66.4 °F 52% 29.96 in 10.0 mi WSW 8.1 mph - N/A   Clear
12:55 PM 86.4 °F 88.7 °F 66.2 °F 51% 29.95 in 10.0 mi WSW 6.9 mph - N/A   Clear
1:15 PM 87.1 °F 89.5 °F 66.2 °F 50% 29.95 in 10.0 mi SSW 6.9 mph - N/A   Scattered Clouds
1:35 PM 87.4 °F 89.1 °F 65.1 °F 47% 29.95 in 10.0 mi South 5.8 mph - N/A   Scattered Clouds
1:55 PM 87.6 °F 88.5 °F 63.5 °F 44% 29.94 in 10.0 mi South 5.8 mph - N/A   Clear
2:15 PM 88.0 °F 89.3 °F 64.2 °F 45% 29.94 in 10.0 mi SW 8.1 mph - N/A   Clear
2:35 PM 88.5 °F 89.8 °F 64.2 °F 44% 29.93 in 10.0 mi SSE 10.4 mph - N/A   Clear
2:55 PM 88.5 °F 88.9 °F 61.9 °F 41% 29.92 in 10.0 mi South 6.9 mph - N/A   Clear
3:15 PM 88.7 °F 89.4 °F 62.6 °F 42% 29.92 in 10.0 mi South 5.8 mph - N/A   Scattered Clouds
3:35 PM 89.1 °F 89.6 °F 62.4 °F 41% 29.91 in 10.0 mi South 6.9 mph - N/A   Clear
3:55 PM 89.1 °F 90.3 °F 63.7 °F 43% 29.90 in 10.0 mi SSW 4.6 mph - N/A   Clear
4:15 PM 88.7 °F 89.8 °F 63.7 °F 43% 29.90 in 10.0 mi South 6.9 mph - N/A   Clear
4:35 PM 88.5 °F 89.8 °F 63.9 °F 44% 29.88 in 10.0 mi SW 5.8 mph - N/A   Clear
4:55 PM 88.5 °F 89.8 °F 64.0 °F 44% 29.88 in 10.0 mi SSW 6.9 mph - N/A   Clear
5:15 PM 88.0 °F 89.6 °F 64.6 °F 46% 29.88 in 10.0 mi SSW 8.1 mph - N/A   Clear
5:35 PM 87.8 °F 89.7 °F 65.3 °F 47% 29.88 in 10.0 mi SSW 6.9 mph - N/A   Clear
5:55 PM 87.3 °F 89.5 °F 65.8 °F 49% 29.88 in 10.0 mi SSW 8.1 mph - N/A   Clear
6:15 PM 86.7 °F 89.0 °F 66.2 °F 50% 29.89 in 10.0 mi SSW 6.9 mph - N/A   Clear
6:35 PM 86.0 °F 88.8 °F 67.1 °F 53% 29.88 in 10.0 mi SSW 3.5 mph - N/A   Clear
6:55 PM 84.4 °F 87.3 °F 67.6 °F 57% 29.89 in 10.0 mi South 3.5 mph - N/A   Clear
7:15 PM 82.0 °F 85.5 °F 69.3 °F 65% 29.89 in 10.0 mi South 3.5 mph - N/A   Clear
7:35 PM 79.7 °F - 69.6 °F 71% 29.89 in 10.0 mi Calm Calm - N/A   Mostly Cloudy
7:55 PM 77.2 °F - 70.5 °F 80% 29.89 in 10.0 mi Calm Calm - N/A   Scattered Clouds
8:15 PM 75.7 °F - 71.2 °F 86% 29.89 in 10.0 mi Calm Calm - N/A   Clear
8:35 PM 74.5 °F - 71.2 °F 90% 29.89 in 10.0 mi Calm Calm - N/A   Clear
8:55 PM 73.9 °F - 71.1 °F 91% 29.90 in 10.0 mi Calm Calm - N/A   Clear
9:15 PM 73.6 °F - 70.7 °F 91% 29.91 in 10.0 mi Calm Calm - N/A   Clear
9:35 PM 74.1 °F - 70.7 °F 89% 29.91 in 10.0 mi SSE 5.8 mph - N/A   Clear
9:55 PM 78.1 °F - 70.5 °F 77% 29.91 in 10.0 mi South 5.8 mph - N/A   Clear
10:15 PM 78.1 °F - 70.7 °F 78% 29.91 in 10.0 mi South 5.8 mph - N/A   Clear
10:35 PM 77.7 °F - 70.9 °F 79% 29.91 in 10.0 mi South 3.5 mph - N/A   Clear
10:55 PM 77.2 °F - 71.1 °F 81% 29.91 in 10.0 mi South 4.6 mph - N/A   Clear
11:15 PM 76.8 °F - 71.1 °F 82% 29.91 in 10.0 mi South 4.6 mph - N/A   Scattered Clouds
11:35 PM 77.0 °F - 71.2 °F 82% 29.91 in 10.0 mi South 4.6 mph - N/A   Scattered Clouds
11:55 PM 76.5 °F - 71.2 °F 84% 29.90 in 10.0 mi South 3.5 mph - N/A   Clear